Wind_Speed
26 23 21 17 13 17 23 24 17 18 18 17 21 18 16 13 9 8 8 8 12 17 21 24 27 29 29 30 31 30 27 24 23 24 26 28 28 29 28 26 26 27 27 29
23 22 19 17 15 14 17 20 21 21 21 18 13 14 14 13 10 7 6 10 14 18 21 25 27 27 27 29 28 27 24 22 22 23 26 27 28 28 27 26 25 26 27 29
17 19 16 15 24 22 20 20 15 16 13 12 13 12 14 10 6 8 9 11 16 19 21 24 25 26 26 27 26 24 21 20 21 23 24 26 28 28 27 26 25 26 27 29
14 11 2 17 13 14 17 18 13 11 11 12 12 12 10 8 9 11 11 13 16 19 21 23 24 25 26 25 23 21 18 18 20 22 24 25 27 28 28 28 26 25 26 28
12 16 12 10 13 13 11 8 9 10 10 10 10 11 11 11 12 13 13 14 16 19 21 22 23 24 23 22 21 17 16 17 19 21 23 25 26 28 29 29 27 24 25 27
14 6 7 11 14 13 9 11 9 8 7 9 10 11 11 12 14 13 13 15 16 18 19 20 21 21 21 20 17 14 14 15 17 20 22 24 26 28 30 31 29 25 24 26
23 11 7 9 8 6 8 7 8 6 7 10 10 12 12 15 14 14 14 15 16 17 18 19 20 19 19 17 14 12 12 14 16 19 21 23 26 28 30 30 27 23 24 25
10 7 7 12 10 9 7 8 6 6 8 13 12 12 15 14 15 15 15 15 16 17 18 19 18 18 17 14 11 10 11 13 15 17 19 22 25 28 28 28 24 20 22 23
5 1 4 2 4 11 13 11 9 8 13 10 13 13 14 15 16 15 14 15 15 17 18 18 17 17 14 11 9 8 9 12 13 15 18 21 24 26 27 26 22 19 20 21
25 23 21 15 19 10 10 11 11 13 11 9 13 14 15 17 16 14 14 14 15 16 17 16 16 14 12 9 7 8 11 12 14 17 18 20 23 25 26 27 25 20 20 21
17 17 17 15 15 14 12 13 14 13 11 12 14 14 17 16 14 14 14 14 15 16 16 16 14 13 11 8 7 10 11 12 13 16 17 19 22 25 27 29 30 26 22 22
17 19 21 13 12 13 13 14 16 14 14 13 14 15 17 14 13 13 13 14 14 15 14 14 12 11 8 6 7 8 9 11 14 15 17 20 22 24 27 30 31 30 26 25
20 16 12 9 6 8 9 14 22 17 15 14 16 16 13 13 12 12 13 13 13 13 13 11 10 8 4 4 6 7 9 12 13 15 17 19 21 23 25 28 30 30 30 27
12 8 8 13 12 21 23 21 19 16 14 17 17 13 12 11 11 12 11 11 12 12 11 9 7 3 5 5 6 7 10 12 13 15 17 19 20 21 24 26 27 29 30 30
10 15 14 17 18 16 18 17 14 16 16 14 13 13 11 10 10 9 9 9 10 9 7 5 3 5 7 6 7 8 10 10 12 14 17 18 19 20 22 24 27 29 31 30
12 15 19 18 18 19 19 19 18 10 14 14 12 9 9 9 9 8 7 8 6 4 4 5 7 9 8 7 7 8 8 9 11 12 14 16 18 19 21 22 23 25 26 28
20 19 20 21 22 21 10 6 10 14 13 9 8 8 8 8 8 7 6 5 1 4 7 8 11 11 9 8 7 7 7 8 10 11 13 14 15 17 18 20 21 21 23 24
24 24 17 16 11 7 11 12 11 9 7 8 7 8 8 7 7 7 5 3 4 8 10 11 13 12 11 9 7 6 7 8 10 11 12 13 14 14 15 17 19 21 21 22
21 20 15 8 8 10 9 7 7 7 7 6 8 8 7 6 6 6 5 6 7 10 12 13 13 11 9 8 8 6 7 8 9 11 12 13 13 14 14 15 17 18 20 20
16 13 7 9 9 7 7 7 7 6 6 7 7 7 7 6 6 7 5 8 9 11 13 14 14 12 10 8 7 6 6 6 8 10 11 12 13 14 14 15 15 16 16 18
11 7 8 8 8 7 7 7 5 5 5 6 7 7 6 6 8 7 6 9 12 14 13 13 13 12 11 8 7 5 4 4 6 8 9 11 12 13 14 14 15 15 15 15
7 7 8 8 7 5 4 4 5 5 6 6 6 6 6 8 9 7 7 9 13 15 14 14 13 12 10 8 6 4 2 2 4 5 7 8 10 11 13 14 14 14 14 14
8 7 6 5 5 5 5 5 5 5 6 6 6 6 7 8 9 8 9 12 14 14 14 14 13 12 11 8 6 4 2 1 2 4 5 7 8 10 11 12 13 14 14 13
8 7 7 6 6 5 5 5 5 6 7 8 9 9 9 8 8 6 6 8 11 12 13 14 13 12 11 10 7 5 5 4 2 3 4 6 7 9 10 11 12 12 13 13
8 7 6 5 4 5 7 8 9 9 9 10 10 10 10 10 8 6 7 8 9 11 12 14 13 13 12 11 10 8 8 7 5 4 4 5 6 8 9 10 11 11 11 11
6 4 5 7 9 10 11 11 11 11 11 11 12 12 12 11 11 11 10 10 12 12 13 15 14 14 13 13 12 11 11 10 9 8 7 7 7 8 8 9 10 11 11 11
6 8 9 12 13 14 14 13 13 12 12 12 12 11 11 12 12 13 14 14 13 12 13 15 15 15 14 14 14 14 14 13 13 12 11 11 10 10 10 10 10 11 11 11
Wind_Direction
245 248 250 247 249 242 234 238 244 274 280 298 303 307 311 308 299 287 277 275 294 300 304 313 324 331 336 339 340 343 344 345 349 350 353 354 354 353 351 350 351 351 351 355
247 249 245 237 239 229 231 237 246 263 282 293 293 302 303 302 291 283 284 289 289 298 305 314 325 332 336 339 340 342 344 346 350 352 355 354 355 354 354 352 350 352 354 357
237 239 236 253 245 242 244 249 257 267 285 283 296 297 300 294 281 298 304 293 293 301 305 317 329 333 336 337 338 342 344 349 352 355 356 356 356 356 357 355 353 354 358 359
242 207 216 253 246 235 238 247 255 270 278 287 289 295 292 283 298 313 309 299 298 300 308 323 328 333 335 334 339 343 346 351 354 356 358 358 358 359 359 359 358 358 1 1
223 212 249 248 238 230 221 239 256 266 272 280 285 287 279 284 304 316 307 299 296 303 316 323 329 333 331 334 341 342 349 355 356 357 360 360 1 2 4 3 2 3 5 5
218 221 210 256 241 232 236 252 244 235 247 280 289 286 280 294 313 313 306 297 299 310 320 324 329 329 329 337 340 343 353 357 359 1 1 3 5 6 7 5 6 10 7 8
222 213 225 244 234 206 215 223 205 247 282 297 294 287 292 303 310 311 307 304 308 316 321 324 327 326 331 337 339 345 354 359 4 5 4 6 10 11 10 8 11 13 11 12
222 236 245 225 214 229 263 240 272 287 300 296 298 303 301 305 311 312 310 312 314 318 322 323 325 326 331 336 337 347 356 4 9 9 10 11 14 16 15 12 15 17 16 16
248 143 309 326 243 240 231 257 279 293 304 293 313 308 303 305 310 310 314 314 316 321 321 323 323 326 332 334 335 348 4 9 12 16 17 17 20 21 19 20 22 23 24 24
256 259 269 248 226 208 238 258 265 291 279 306 309 310 305 309 309 308 311 319 320 319 320 321 323 328 332 331 335 360 13 12 14 19 21 21 24 25 24 27 30 31 30 31
253 255 254 232 217 228 246 249 257 267 282 300 307 306 307 306 306 310 318 320 318 316 321 322 327 330 334 341 360 18 18 18 21 23 23 24 27 26 28 31 32 32 33 34
250 245 240 228 217 230 242 258 262 273 291 294 299 305 304 302 308 314 317 318 315 318 324 328 331 337 346 5 30 29 23 26 27 27 26 27 28 28 31 33 34 33 33 33
236 236 235 251 262 268 274 299 283 275 281 292 302 300 295 305 311 314 317 314 316 323 327 330 339 351 12 55 53 42 38 36 32 31 31 30 30 31 34 36 37 37 36 35
218 216 261 284 292 302 289 262 259 267 284 299 292 291 300 306 309 311 311 312 316 320 328 343 356 29 91 92 74 61 53 45 39 37 35 32 32 32 36 39 39 40 40 39
272 295 290 290 294 259 246 247 252 274 292 283 289 295 299 305 304 305 302 305 314 326 347 16 63 112 119 109 90 75 64 54 47 41 37 35 33 33 34 36 38 39 38 38
291 288 288 275 259 242 231 233 267 285 279 286 287 291 301 298 292 288 296 304 316 349 51 94 127 129 125 110 98 81 67 55 46 40 36 35 34 35 35 36 40 41 41 41
305 296 289 268 251 257 267 289 275 272 277 278 283 292 288 280 279 280 293 296 278 111 121 144 139 136 129 119 98 81 65 54 46 41 36 32 33 34 35 37 40 41 42 43
283 284 279 271 274 285 270 264 263 259 262 271 280 277 271 263 268 280 287 238 170 148 149 163 150 147 140 126 105 85 69 59 52 46 39 35 33 31 32 35 38 39 41 41
269 278 278 273 285 269 252 241 245 258 267 271 265 257 253 260 270 280 270 201 179 162 165 171 156 153 143 125 109 93 76 64 58 50 42 38 35 31 31 32 35 37 39 40
271 284 297 276 264 254 251 260 269 270 266 258 252 251 252 263 279 289 255 205 190 177 179 182 165 157 148 133 116 102 80 66 61 52 44 39 36 32 31 31 31 33 36 38
260 253 249 244 247 254 259 261 267 264 255 255 255 255 262 278 290 284 234 202 197 192 190 190 178 169 160 147 135 124 95 62 54 49 41 36 33 29 29 29 29 29 30 33
237 244 245 242 241 244 243 242 241 248 258 261 261 269 277 286 295 280 237 218 206 200 196 194 189 184 177 167 156 149 131 66 35 30 30 26 25 23 24 23 24 25 26 26
224 214 206 202 205 213 226 242 257 266 274 277 276 280 277 289 294 271 228 209 201 202 201 199 200 197 193 186 178 184 208 279 359 8 10 16 16 15 17 19 19 19 19 21
179 177 184 196 211 228 246 261 278 286 285 283 277 272 268 273 275 254 223 219 210 205 204 206 209 210 206 202 198 205 222 242 282 329 348 1 4 8 10 12 13 14 13 13
181 190 200 219 249 271 280 280 278 277 276 276 275 271 262 254 251 244 235 222 215 216 218 220 220 221 223 222 221 225 231 240 244 269 310 332 344 348 355 358 2 6 7 7
202 227 256 264 268 271 274 277 278 279 278 277 273 268 261 255 247 240 239 236 235 239 234 230 230 234 235 235 237 240 245 252 260 266 280 300 314 322 331 339 346 353 357 359
241 259 270 273 273 273 275 277 277 277 277 274 270 266 262 256 252 250 249 249 250 251 243 235 236 240 245 244 246 250 253 255 260 269 278 285 293 301 309 319 330 337 344 348
Height
3125 3125 3125 3126 3126 3126 3127 3129 3130 3129 3129 3130 3128 3126 3124 3122 3122 3121 3120 3120 3120 3118 3115 3111 3106 3101 3095 3089 3083 3079 3073 3068 3063 3058 3053 3047 3041 3035 3029 3023 3017 3012 3006 2999
3122 3122 3122 3122 3122 3123 3123 3124 3125 3125 3125 3125 3123 3122 3121 3120 3118 3117 3117 3117 3116 3113 3111 3106 3102 3097 3091 3085 3080 3075 3070 3066 3061 3057 3051 3046 3039 3034 3027 3021 3016 3010 3004 2997
3118 3119 3120 3120 3117 3117 3118 3118 3120 3120 3122 3120 3120 3119 3117 3116 3115 3115 3114 3113 3111 3109 3106 3102 3098 3092 3087 3082 3077 3072 3068 3064 3059 3055 3050 3045 3039 3032 3026 3020 3014 3009 3002 2996
3116 3116 3119 3112 3112 3113 3113 3115 3117 3117 3118 3117 3116 3115 3114 3114 3113 3111 3110 3109 3107 3105 3102 3098 3092 3088 3084 3080 3074 3070 3067 3063 3059 3054 3049 3043 3038 3032 3025 3018 3013 3007 3001 2995
3113 3111 3111 3109 3109 3110 3110 3113 3113 3113 3113 3113 3113 3112 3112 3110 3109 3107 3106 3105 3103 3100 3097 3093 3088 3084 3081 3077 3072 3068 3065 3062 3058 3053 3048 3043 3038 3031 3024 3017 3011 3006 3000 2995
3107 3108 3107 3106 3106 3107 3109 3109 3108 3108 3110 3110 3110 3109 3108 3107 3105 3103 3102 3101 3098 3096 3093 3088 3085 3082 3078 3074 3070 3067 3064 3061 3057 3052 3048 3043 3037 3030 3023 3016 3010 3005 3000 2995
3101 3102 3101 3102 3104 3106 3110 3110 3104 3106 3107 3107 3107 3106 3104 3103 3101 3100 3098 3097 3095 3091 3088 3085 3082 3078 3074 3071 3068 3065 3063 3060 3056 3052 3048 3043 3037 3031 3024 3017 3010 3005 3001 2996
3099 3100 3100 3099 3100 3106 3106 3106 3103 3103 3103 3103 3102 3100 3100 3099 3098 3096 3093 3092 3091 3087 3084 3082 3079 3075 3072 3068 3066 3064 3062 3059 3056 3052 3048 3043 3038 3031 3026 3019 3013 3008 3004 2999
3101 3098 3098 3098 3100 3101 3101 3103 3100 3100 3099 3097 3094 3095 3095 3096 3094 3091 3088 3088 3086 3083 3081 3078 3075 3073 3069 3067 3065 3063 3061 3059 3056 3053 3048 3044 3039 3033 3028 3022 3015 3011 3006 3002
3096 3095 3096 3096 3096 3097 3098 3099 3097 3095 3094 3092 3092 3092 3092 3091 3090 3088 3085 3082 3082 3080 3078 3075 3072 3070 3068 3066 3065 3064 3063 3062 3059 3055 3050 3046 3040 3036 3031 3025 3019 3013 3008 3004
3090 3090 3092 3094 3094 3094 3095 3095 3093 3092 3091 3089 3089 3088 3088 3087 3086 3084 3082 3080 3079 3077 3075 3073 3070 3068 3066 3066 3067 3066 3065 3063 3060 3056 3052 3048 3043 3038 3033 3027 3020 3015 3010 3006
3085 3086 3089 3092 3092 3091 3091 3090 3089 3089 3087 3086 3085 3084 3084 3083 3081 3080 3078 3077 3076 3075 3072 3070 3068 3067 3067 3067 3067 3066 3065 3063 3060 3057 3054 3050 3045 3041 3036 3030 3024 3018 3013 3008
3084 3085 3087 3089 3088 3088 3089 3087 3086 3084 3083 3083 3082 3080 3079 3078 3077 3076 3076 3075 3074 3072 3070 3068 3066 3066 3066 3066 3066 3066 3065 3062 3061 3059 3055 3051 3048 3044 3039 3034 3028 3023 3017 3012
3082 3082 3084 3084 3083 3083 3083 3081 3080 3080 3080 3079 3078 3076 3075 3073 3073 3072 3073 3072 3071 3070 3068 3066 3065 3065 3066 3066 3067 3066 3065 3063 3062 3059 3057 3054 3050 3047 3043 3038 3033 3028 3023 3018
3079 3078 3078 3077 3076 3076 3077 3076 3075 3076 3075 3075 3074 3072 3071 3071 3071 3070 3070 3070 3069 3067 3066 3065 3065 3066 3066 3067 3067 3066 3065 3065 3063 3061 3058 3056 3053 3049 3045 3041 3036 3031 3026 3023
3071 3072 3072 3071 3071 3070 3070 3068 3069 3071 3071 3071 3070 3069 3068 3068 3069 3069 3067 3067 3066 3065 3064 3064 3065 3066 3067 3068 3067 3066 3066 3066 3064 3062 3060 3058 3055 3052 3049 3045 3041 3037 3033 3028
3065 3065 3067 3066 3065 3064 3064 3065 3066 3066 3066 3066 3066 3065 3066 3067 3068 3068 3065 3065 3064 3063 3063 3064 3065 3066 3068 3068 3068 3067 3067 3066 3065 3064 3062 3060 3057 3055 3052 3049 3045 3041 3038 3034
3062 3062 3061 3061 3060 3061 3062 3062 3062 3063 3063 3062 3062 3063 3064 3066 3065 3065 3063 3063 3063 3062 3063 3064 3065 3066 3066 3067 3068 3069 3068 3067 3066 3065 3063 3062 3059 3057 3055 3052 3048 3045 3041 3037
3056 3056 3057 3057 3058 3058 3058 3059 3059 3060 3059 3059 3061 3062 3063 3062 3062 3062 3061 3061 3062 3062 3063 3064 3065 3067 3068 3068 3068 3069 3069 3069 3068 3066 3065 3063 3061 3059 3057 3054 3051 3048 3044 3041
3052 3052 3052 3054 3054 3055 3056 3056 3055 3056 3057 3058 3059 3059 3060 3060 3060 3059 3059 3059 3060 3062 3063 3065 3064 3066 3067 3068 3069 3070 3071 3070 3069 3068 3067 3065 3063 3061 3059 3056 3053 3051 3048 3045
3050 3050 3051 3052 3052 3052 3053 3054 3054 3054 3056 3056 3057 3058 3058 3058 3057 3057 3056 3057 3059 3061 3062 3065 3065 3066 3067 3068 3068 3070 3071 3071 3070 3069 3068 3067 3065 3063 3061 3058 3055 3053 3050 3048
3047 3048 3048 3050 3050 3050 3051 3053 3054 3054 3055 3055 3055 3055 3055 3056 3055 3054 3055 3056 3058 3060 3061 3063 3064 3066 3067 3067 3068 3069 3071 3071 3071 3070 3069 3067 3066 3065 3062 3060 3057 3055 3052 3050
3046 3046 3047 3048 3050 3051 3052 3052 3052 3053 3053 3053 3053 3053 3054 3054 3053 3053 3054 3055 3056 3058 3060 3062 3064 3065 3066 3066 3067 3068 3070 3071 3070 3070 3069 3068 3067 3066 3063 3061 3059 3056 3054 3051
3044 3046 3048 3049 3050 3050 3050 3051 3051 3051 3051 3051 3051 3052 3052 3052 3053 3053 3053 3054 3055 3057 3058 3060 3062 3064 3064 3065 3065 3066 3068 3069 3069 3069 3069 3068 3067 3066 3064 3062 3060 3057 3055 3052
3044 3046 3047 3047 3047 3048 3048 3049 3049 3049 3049 3049 3049 3049 3050 3051 3052 3052 3052 3053 3054 3056 3057 3059 3060 3061 3062 3063 3063 3064 3066 3067 3067 3067 3067 3067 3066 3065 3063 3062 3060 3057 3055 3053
3043 3044 3045 3045 3046 3046 3046 3047 3046 3046 3046 3046 3046 3047 3047 3048 3049 3049 3050 3051 3052 3054 3055 3056 3057 3058 3059 3060 3061 3062 3063 3064 3065 3065 3065 3065 3064 3063 3062 3061 3059 3057 3055 3053
3041 3042 3042 3043 3043 3043 3043 3043 3043 3043 3043 3043 3043 3043 3043 3044 3045 3046 3047 3048 3049 3050 3051 3052 3054 3055 3056 3057 3058 3059 3060 3061 3061 3062 3062 3062 3062 3061 3060 3059 3058 3056 3054 3052